Погода в Кириллове

Россия / Нижегородская область     57°07′14″N   45°25′53″E
темп.,
°C
ветер,
м/с
пор.,
м/с
влажн.,
%
обл.,
%
осадки,
мм/ч
давл.,
гПа
погр.,
м
17 мая, вт
вт1700:00+7зюз3695100 0.1 1000385
03:00+7зюз2595100 0.1 999360
06:00+8зюз2496100 0.1 999330
09:00+8з2392100 0.2 1000351
12:00+10зюз237893 0.0 1000670
15:00+12юз2265100 0.1 10001046
18:00+11зюз247482 0.0 1000331
21:00+9зсз2585100 0.0 1001162
18 мая, ср
ср1800:00+8ссв51094100 0.8 1002683
03:00+7с41093100 1.4 1002564
06:00+6с41091100 0.0 1004592
09:00+9с467396 0.0 10051045
12:00+9ссз4666100 0.1 10061132
15:00+9ссз365615 0.1 10071187
18:00+9с3563100 0.0 1007914
21:00+6ссз3684100 0.1 1009708
19 мая, чт
чт1900:00+3зсз239597 0.0 100946
03:00+4сз3696100 0.1 1009490
06:00+5зсз4683100 0.1 1009606
09:00+7зсз457099 0.6 10081158
12:00+8зсз5655100 0.3 10091733
15:00+7сз576724 0.7 10091256
18:00+9сз374786 0.1 10101977
21:00+5з3873100 0.2 1011299
20 мая, пт
пт2000:00+3зсз2789100 0.1 1011205
03:00+2сз2892100 0.1 1011241
06:00+3ссз48815 0.0 1012442
09:00+6ссз5763100 0.1 10141329
12:00+7сз5760100 0.0 10151427
15:00+9с5758100 0.7 10141641
18:00+8ссз4768100 0.7 10151069
21:00+4з228685 0.8 101518
21 мая, сб
сб2100:00+1ссз268953 0.0 1015111
03:00−1ссз27955 0.0 1015156
06:00+2ссз48755 0.0 1015419
09:00+7ссз474516 0.0 10141470
12:00+10ссз5636100 0.0 10122199
15:00+11с5635100 0.0 10122258
18:00+9ссв4644100 0.0 10121683
21:00+5ссв2266100 0.0 101342